Overview Statistics Trail Chart Weather Telemetry Raw packets
 

This is the latest recevied weather packets stored in our database for station/object N9BLE. If no packets are shown the sender has not sent any weather packets the latest 10 day(s).

<< 79 80 81 82 83 84 85 >>
Time Temp. Humidity Pressure Rain* Wind** Luminosity Snow
1777466443 10.56° C 83% 1017.4 hPa 0 mm - 108 W/m² -
1777466139 10.56° C 83% 1017.4 hPa 0 mm - 82 W/m² -
1777465836 10.56° C 84% 1017.3 hPa 0 mm - 108 W/m² -
1777465531 10° C 85% 1017.3 hPa 0 mm - 104 W/m² -
1777465226 10° C 86% 1017.3 hPa 0 mm - 72 W/m² -
1777464921 9.44° C 88% 1017.4 hPa 0 mm - 70 W/m² -
1777464616 9.44° C 89% 1017.4 hPa 0 mm - 62 W/m² -
1777464313 9.44° C 90% 1017.5 hPa 0 mm - 42 W/m² -
1777464009 9.44° C 91% 1017.5 hPa 0 mm - 34 W/m² -
1777463703 9.44° C 91% 1017.3 hPa 0 mm - 29 W/m² -
1777463398 9.44° C 91% 1017.5 hPa 0 mm - 31 W/m² -
1777463095 9.44° C 91% 1017.5 hPa 0 mm - 21 W/m² -
1777462791 8.89° C 91% 1017.3 hPa 0 mm - 17 W/m² -
1777462486 8.89° C 91% 1017.2 hPa 0 mm - 16 W/m² -
1777462183 8.89° C 91% 1017.1 hPa 0 mm - 11 W/m² -
1777461879 8.89° C 91% 1017.3 hPa 0 mm - 7 W/m² -
1777461576 8.89° C 90% 1017.2 hPa 0 mm - 5 W/m² -
1777461271 8.89° C 90% 1017 hPa 0 mm - 5 W/m² -
1777460967 8.89° C 89% 1016.9 hPa 0 mm - 4 W/m² -
1777460663 8.89° C 89% 1016.9 hPa 0 mm - 3 W/m² -
1777460359 8.89° C 89% 1017.1 hPa 0 mm - 2 W/m² -
1777460055 8.89° C 89% 1017.1 hPa 0 mm - 1 W/m² -
1777459752 9.44° C 88% 1017.1 hPa 0 mm - 1 W/m² -
1777459449 9.44° C 86% 1017.1 hPa 0 mm - 0 W/m² -
1777459147 9.44° C 84% 1017.1 hPa 0 mm - 0 W/m² -

* Rain latest hour (hover to see other rain measurements)
** Current wind speed in m/s (hover to see current wind gust speed)